Other Surface Observations
Issued by NWS

Home | Current Version | Previous Version | Text Only | Print | Product List | Glossary On
Versions: 1 2 3 4 5 6 7 8 9 10 11 12 13 14 15 16 17 18 19 20 21 22 23 24 25 26 27 28 29 30 31 32 33 34 35 36 37 38 39 40 41 42 43 44 45 46 47 48 49 50
000
SXUS52 KTAE 270219
OSOTAE
OSOTAE
North Florida/South Alabama/Southwest Georgia Weather Roundup
National Weather Service Tallahassee Florida
1000 PM EDT WED APR 26 2017

Note: "fair" indicates few or no clouds below 12,000 feet with no
significant weather and/or obstructions to visibility.

!FLZ017-115-028-034-025-270300
...North Florida...

CITY           SKY/WX    TMP DP  RH WIND       PRES   REMARKS
TALLAHASSEE    CLEAR     69  60  73 SE3       29.84S
APALACHICOLA   CLOUDY    75  71  87 SE15      29.82S
PERRY          PTCLDY    71  63  75 CALM      29.87R
CROSS CITY     PTCLDY    68  61  77 CALM      29.88R
JACKSONVILLE   CLEAR     69  60  73 SE8       29.88R
$$

!FLZ112-006-005-002-011-270300
...Florida Panhandle...

CITY           SKY/WX    TMP DP  RH WIND       PRES   REMARKS
MARIANNA       PTCLDY    74  61  63 S10       29.80R
BONIFAY        NOT AVBL
PANAMA CITY NW MOCLDY    73  63  70 SE7       29.80R
TYNDALL AFB    PTCLDY    72  66  83 SE10      29.81R
TYND DRONE APT MOCLDY    72  66  83 SE10      29.81R
DE FUNIAK SPR  CLOUDY    71  62  74 S8        29.80R
EGLIN AFB      MOCLDY    73  66  78 SE14G25   29.78S
DESTIN         LGT RAIN  76  73  91 SE15      29.78R
HURLBURT       CLOUDY    73  65  74 SE15G22   29.77R
CRESTVIEW      CLOUDY    73  63  70 S7        29.80R
PENSACOLA      CLOUDY    74  67  78 SE18G25   29.76R
$$

!ALZ063-066-270300
...South Alabama...

CITY           SKY/WX    TMP DP  RH WIND       PRES   REMARKS
DOTHAN         PTCLDY    72  59  63 S7        29.83R
OZARK CAIRNS   PTCLDY    71  61  70 S6        29.80R
FT RUCKER HELI PTCLDY    71  61  69 S5        29.79R
RUCKER HELI 3  MOCLDY    72  61  67 S9        29.79R
RUCKER HELI 2  FAIR      70  57  63 CALM      29.79R
FLORALA APT    MOCLDY    71  61  70 S7        29.82R
ANDALUSIA      MOCLDY    74  62  66 S6        29.78R
TROY           PTCLDY    70  57  63 S7        29.79R
EUFALA         FAIR      73  58  59 S5        29.79R
MOBILE         CLOUDY    73  68  84 SE14      29.75R
$$

!GAZ120>161-270300
...Southwest and South Central Georgia...

CITY           SKY/WX    TMP DP  RH WIND       PRES   REMARKS
THOMASVILLE    FAIR      70  61  73 S7        29.86R
BAINBRIDGE     CLEAR     72  59  64 S10       29.83R
MOODY AFB      CLEAR     64  53  67 S8        29.85R
VALDOSTA       CLEAR     65  54  67 SW3       29.86R
MOULTRIE       CLEAR     70  55  60 S7        29.85R
BLAKELY        CLEAR     72  55  56 CALM      29.82R
ALBANY         CLEAR     73  55  53 S10       29.83R
TIFTON         FAIR      71  53  53 S8        29.84R
FITZGERALD     CLOUDY    74  56  52 S10G16    29.86R
CORDELE        FAIR      76  58  53 S6        29.83R
AMERICUS       FAIR      70  54  56 S3        29.84R
HOMERVILLE     FAIR      70  55  60 S5        29.87R
$$

!GMZ750-755-770-775-270300
...Coastal and Buoy Obs...

STATION/POSITION TIME  TEMP    WIND        PRES    VSBY  WAVE
                       AIR SEA DIR/SP/G                  HT/PER
                 (UTC) (F)     (DEG/KT/KT) (MB)    (MI)  (FT/S)
KEATON BEACH     0200   73     160/  9/ 10 1010.9R
CEDAR KEY        0200   75     160/  8/  8 1011.9R
C TOWER          0200   72     160/ 16/ 18 1010.6R
APALACHICOLA BUO 0150   73 73  150/ 14/ 16 1010.2R         3/ 4
PANAMA CITY BUOY 0150   74 74  140/ 17/ 19 1008.4R         3/ 4
MOBILE BUOY      0200   75 75  140/ 14/ 17 1006.5
ORANGE BCH AL BU 0150   74 74  130/ 17/ 21 1006.8R         5/ 5
$$




USA.gov is the U.S. government's official web portal to all federal, state and local government web resources and services.